When you browse on this site, cookies collect data to enhance your experience and personalize the content and advertising you see.
Visit our Privacy Policy to learn more. By continuing to use the site, you agree to this use of cookies and data.
  • In Lithuania
  • List of Countries
  • For 7 days
  • Water Temperature
  • Weather Map
  • Weather Widgets
  • user-avatar
    Login

    Hourly Weather Kaprun

    Today, 13 December, Friday

    Time Temperature Precipitation Wind Pressure Humidity
    00:00 -13°C° 0 mm 2 mps 579 mmHg 83%
    01:00 -14°C° 0 mm 3 mps 578 mmHg 82%
    02:00 -14°C° 0 mm 3 mps 578 mmHg 82%
    03:00 -14°C° 0 mm 3 mps 577 mmHg 81%
    04:00 -14°C° 0 mm 3 mps 576 mmHg 81%
    05:00 -15°C° 0 mm 4 mps 576 mmHg 80%
    06:00 -15°C° 0 mm 4 mps 575 mmHg 80%
    07:00 -15°C° 0 mm 4 mps 575 mmHg 80%
    08:00 -14°C° 0 mm 4 mps 574 mmHg 79%
    09:00 -13°C° 0 mm 5 mps 574 mmHg 77%
    10:00 -13°C° 0 mm 5 mps 574 mmHg 76%
    11:00 -11°C° 0.1 mm 4 mps 574 mmHg 77%
    12:00 -9°C° 0.1 mm 3 mps 574 mmHg 78%
    13:00 -8°C° 0.1 mm 2 mps 574 mmHg 80%
    14:00 -8°C° 0.9 mm 2 mps 574 mmHg 85%
    15:00 -8°C° 0.9 mm 2 mps 574 mmHg 90%
    16:00 -8°C° 0.9 mm 2 mps 574 mmHg 95%
    17:00 -9°C° 0.4 mm 2 mps 574 mmHg 92%
    18:00 -9°C° 0.4 mm 2 mps 575 mmHg 90%
    19:00 -9°C° 0.4 mm 2 mps 575 mmHg 88%
    20:00 -9°C° 0 mm 2 mps 576 mmHg 85%
    21:00 -9°C° 0 mm 2 mps 576 mmHg 82%
    22:00 -10°C° 0 mm 2 mps 576 mmHg 79%
    23:00 -10°C° 0 mm 2 mps 577 mmHg 81%

    Tomorrow, 14 December, Saturday

    Time Temperature Precipitation Wind Pressure Humidity
    00:00 -10°C° 0 mm 2 mps 578 mmHg 83%
    01:00 -10°C° 0 mm 2 mps 578 mmHg 84%
    02:00 -12°C° 0 mm 2 mps 579 mmHg 83%
    03:00 -12°C° 0 mm 2 mps 579 mmHg 81%
    04:00 -12°C° 0 mm 2 mps 579 mmHg 80%
    05:00 -12°C° 0 mm 2 mps 580 mmHg 74%
    06:00 -10°C° 0 mm 2 mps 580 mmHg 68%
    07:00 -10°C° 0 mm 2 mps 581 mmHg 62%
    08:00 -8°C° 0.1 mm 2 mps 582 mmHg 62%
    09:00 -6°C° 0.1 mm 2 mps 583 mmHg 62%
    10:00 -4°C° 0.1 mm 2 mps 585 mmHg 62%
    11:00 -2°C° 0 mm 1 mps 585 mmHg 64%
    12:00 -1°C° 0 mm 1 mps 586 mmHg 66%
    13:00 0°C° 0 mm 1 mps 587 mmHg 68%
    14:00 -1°C° 0 mm 1 mps 587 mmHg 70%
    15:00 -1°C° 0 mm 1 mps 587 mmHg 73%
    16:00 -2°C° 0 mm 1 mps 587 mmHg 76%
    17:00 -3°C° 0 mm 1 mps 587 mmHg 75%
    18:00 -5°C° 0 mm 2 mps 587 mmHg 73%
    19:00 -6°C° 0 mm 2 mps 588 mmHg 72%
    20:00 -6°C° 0 mm 2 mps 588 mmHg 69%
    21:00 -5°C° 0 mm 2 mps 589 mmHg 66%
    22:00 -5°C° 0 mm 2 mps 589 mmHg 63%
    23:00 -5°C° 0 mm 2 mps 589 mmHg 62%

    Day after tomorrow, 15 December, Sunday

    Time Temperature Precipitation Wind Pressure Humidity
    00:00 -5°C° 0 mm 2 mps 589 mmHg 61%
    01:00 -6°C° 0 mm 3 mps 590 mmHg 61%
    02:00 -5°C° 0 mm 2 mps 590 mmHg 61%
    03:00 -5°C° 0 mm 2 mps 590 mmHg 60%
    04:00 -5°C° 0 mm 2 mps 589 mmHg 60%
    05:00 -5°C° 0 mm 2 mps 590 mmHg 61%
    06:00 -6°C° 0 mm 2 mps 590 mmHg 61%
    07:00 -6°C° 0 mm 2 mps 590 mmHg 62%
    08:00 -5°C° 0 mm 2 mps 591 mmHg 64%
    09:00 -2°C° 0 mm 1 mps 592 mmHg 65%
    10:00 -1°C° 0 mm 1 mps 592 mmHg 66%
    11:00 0°C° 0 mm 1 mps 592 mmHg 69%
    12:00 0°C° 0 mm 1 mps 593 mmHg 71%
    13:00 +1°C° 0 mm 1 mps 593 mmHg 74%
    14:00 0°C° 0 mm 1 mps 592 mmHg 75%
    15:00 -2°C° 0 mm 1 mps 592 mmHg 76%
    16:00 -3°C° 0 mm 1 mps 592 mmHg 77%
    17:00 -4°C° 0 mm 1 mps 592 mmHg 77%
    18:00 -6°C° 0 mm 2 mps 592 mmHg 77%
    19:00 -7°C° 0 mm 2 mps 592 mmHg 77%
    20:00 -7°C° 0 mm 2 mps 592 mmHg 78%
    21:00 -7°C° 0 mm 2 mps 593 mmHg 80%
    22:00 -7°C° 0 mm 2 mps 593 mmHg 81%
    23:00 -7°C° 0 mm 2 mps 593 mmHg 81%

    16 December, Monday

    Time Temperature Precipitation Wind Pressure Humidity
    00:00 -8°C° 0 mm 3 mps 593 mmHg 81%
    01:00 -8°C° 0 mm 3 mps 593 mmHg 81%
    02:00 -8°C° 0 mm 3 mps 593 mmHg 81%
    03:00 -8°C° 0 mm 3 mps 593 mmHg 80%
    04:00 -8°C° 0 mm 3 mps 593 mmHg 80%
    05:00 -8°C° 0 mm 3 mps 593 mmHg 81%
    06:00 -8°C° 0 mm 3 mps 593 mmHg 81%
    07:00 -9°C° 0 mm 4 mps 593 mmHg 82%
    08:00 -8°C° 0 mm 4 mps 593 mmHg 82%
    09:00 -7°C° 0 mm 4 mps 594 mmHg 82%
    10:00 -4°C° 0 mm 4 mps 594 mmHg 82%
    11:00 -4°C° 0 mm 4 mps 594 mmHg 82%
    12:00 -3°C° 0 mm 4 mps 594 mmHg 83%
    13:00 -2°C° 0 mm 4 mps 594 mmHg 83%
    14:00 -2°C° 0 mm 4 mps 594 mmHg 84%
    15:00 -4°C° 0 mm 5 mps 594 mmHg 84%
    16:00 -4°C° 0 mm 5 mps 593 mmHg 85%
    17:00 -4°C° 0 mm 5 mps 594 mmHg 85%
    18:00 -4°C° 0 mm 5 mps 594 mmHg 85%
    19:00 -4°C° 0 mm 5 mps 594 mmHg 86%
    20:00 -4°C° 0 mm 5 mps 594 mmHg 86%
    21:00 -4°C° 0 mm 5 mps 594 mmHg 86%
    22:00 -4°C° 0 mm 5 mps 594 mmHg 86%
    23:00 -4°C° 0 mm 5 mps 594 mmHg 86%

    17 December, Tuesday

    Time Temperature Precipitation Wind Pressure Humidity
    00:00 -4°C° 0 mm 5 mps 594 mmHg 86%
    01:00 -4°C° 0 mm 5 mps 594 mmHg 85%
    02:00 -4°C° 0 mm 5 mps 594 mmHg 85%
    03:00 -4°C° 0 mm 5 mps 594 mmHg 84%
    04:00 -4°C° 0 mm 5 mps 594 mmHg 84%
    05:00 -4°C° 0 mm 5 mps 594 mmHg 84%
    06:00 -4°C° 0 mm 5 mps 594 mmHg 84%
    07:00 -4°C° 0 mm 5 mps 594 mmHg 85%
    08:00 -4°C° 0 mm 5 mps 594 mmHg 85%
    09:00 -4°C° 0 mm 5 mps 594 mmHg 85%
    10:00 -2°C° 0 mm 5 mps 595 mmHg 85%
    11:00 -2°C° 0 mm 5 mps 595 mmHg 86%
    12:00 -2°C° 0 mm 4 mps 595 mmHg 86%
    13:00 -1°C° 0 mm 4 mps 595 mmHg 87%
    14:00 -2°C° 0 mm 4 mps 595 mmHg 87%
    15:00 -2°C° 0 mm 4 mps 595 mmHg 87%
    16:00 -2°C° 0 mm 4 mps 595 mmHg 87%
    17:00 -3°C° 0 mm 4 mps 595 mmHg 87%
    18:00 -3°C° 0 mm 4 mps 595 mmHg 87%
    19:00 -3°C° 0 mm 4 mps 595 mmHg 87%
    20:00 -3°C° 0 mm 4 mps 596 mmHg 87%
    21:00 -3°C° 0 mm 4 mps 596 mmHg 88%
    22:00 -3°C° 0 mm 4 mps 596 mmHg 88%
    23:00 -2°C° 0 mm 3 mps 596 mmHg 88%

    18 December, Wednesday

    Time Temperature Precipitation Wind Pressure Humidity
    00:00 -2°C° 0 mm 3 mps 597 mmHg 88%
    01:00 -2°C° 0 mm 3 mps 597 mmHg 87%
    02:00 -2°C° 0 mm 3 mps 597 mmHg 87%
    03:00 -4°C° 0 mm 3 mps 597 mmHg 87%
    04:00 -3°C° 0 mm 2 mps 597 mmHg 86%
    05:00 -3°C° 0 mm 2 mps 597 mmHg 86%
    06:00 -3°C° 0 mm 2 mps 597 mmHg 85%
    07:00 -3°C° 0 mm 2 mps 597 mmHg 84%
    08:00 -3°C° 0 mm 2 mps 598 mmHg 85%
    09:00 -2°C° 0 mm 2 mps 598 mmHg 85%
    10:00 -1°C° 0 mm 2 mps 599 mmHg 85%
    11:00 -1°C° 0 mm 2 mps 599 mmHg 87%
    12:00 +1°C° 0 mm 2 mps 599 mmHg 88%
    13:00 +1°C° 0 mm 2 mps 599 mmHg 90%
    14:00 +1°C° 0 mm 2 mps 599 mmHg 89%
    15:00 -1°C° 0 mm 2 mps 598 mmHg 89%
    16:00 -1°C° 0 mm 2 mps 598 mmHg 88%
    17:00 -2°C° 0 mm 2 mps 598 mmHg 85%
    18:00 -2°C° 0 mm 2 mps 598 mmHg 83%
    19:00 -2°C° 0 mm 2 mps 598 mmHg 80%
    20:00 -2°C° 0 mm 2 mps 598 mmHg 78%
    21:00 -2°C° 0 mm 2 mps 598 mmHg 75%
    22:00 -2°C° 0 mm 2 mps 598 mmHg 73%
    23:00 -2°C° 0 mm 2 mps 598 mmHg 72%
    Show more